Wetbulb
57.27 57.19 56.93 57.01 57.08 57.13 57.03 57.10 57.29 57.58 57.92 58.11 58.56 59.04 59.04 59.20 58.19 59.98 58.34 62.87 63.06 66.66 62.90 56.92 59.40 57.64 57.46 56.70 58.93 59.78 53.17 51.29 53.23 54.89 56.35 59.05 57.51 61.07 63.74 61.50 64.39 66.54 67.24 68.14 69.69
56.64 56.56 56.61 56.53 56.48 56.92 56.84 56.67 56.72 57.16 57.59 58.02 58.28 58.71 58.62 58.63 57.60 56.33 65.43 66.64 67.03 64.68 55.28 54.61 55.72 56.66 54.49 54.83 56.07 55.00 52.13 52.40 56.34 58.42 58.42 58.58 57.25 57.73 58.54 60.87 62.12 62.30 66.88 70.82 69.37
56.23 56.26 56.08 55.97 56.05 56.64 56.53 56.62 56.47 56.86 57.29 57.72 57.95 58.09 58.21 58.30 56.41 57.22 68.37 68.41 65.78 63.17 55.83 56.56 56.96 55.66 53.10 54.53 54.36 54.16 51.49 54.69 55.93 57.81 59.37 58.71 57.34 58.37 57.55 57.93 60.66 59.14 62.18 68.09 68.32
55.77 55.87 55.65 55.48 55.62 55.85 56.10 56.32 56.15 56.82 56.95 57.10 57.34 57.72 58.33 58.76 51.25 60.23 67.96 68.49 68.76 61.50 56.40 55.69 55.06 52.57 51.64 51.21 54.52 51.42 54.24 54.91 55.73 57.19 57.18 57.46 59.01 57.40 57.36 60.41 62.75 64.64 65.59 68.05 67.52
55.45 55.26 55.01 54.78 55.02 55.67 55.92 56.16 56.00 56.05 56.15 56.77 57.14 57.60 58.49 57.49 56.71 60.14 70.23 69.01 63.89 58.60 56.37 54.76 53.09 52.78 50.54 52.31 53.44 52.10 53.00 54.64 55.64 56.04 56.37 57.82 57.33 57.06 57.13 60.26 64.51 66.37 68.58 67.91 67.25
55.08 54.49 54.11 54.25 55.01 55.51 55.53 55.63 55.62 55.83 56.26 57.66 57.93 56.80 56.94 51.74 59.43 62.17 62.67 63.59 60.09 58.16 57.10 55.94 54.27 55.15 52.99 52.64 52.16 53.86 53.73 53.75 54.58 54.98 55.93 55.13 56.76 57.91 58.26 60.13 61.10 63.29 65.64 67.84 67.43
54.96 54.49 54.33 54.43 54.96 55.31 55.49 55.16 54.95 55.78 58.20 59.52 58.69 58.78 56.56 55.10 59.64 60.69 59.48 60.14 60.73 59.21 56.18 57.64 57.32 54.77 54.68 51.87 54.94 54.03 51.20 52.62 53.26 54.03 53.52 56.27 54.45 55.79 59.20 59.39 59.85 61.97 63.55 66.80 68.34
54.44 54.10 53.85 54.39 54.69 55.10 55.35 55.04 54.97 56.84 60.29 58.85 58.45 59.04 55.86 60.05 60.49 58.73 59.75 58.47 60.14 60.33 57.99 58.89 57.99 55.28 53.80 54.74 53.82 52.82 52.28 48.33 52.82 53.86 53.98 54.10 50.48 56.16 59.21 59.27 58.68 60.02 62.91 64.55 68.22
54.20 53.62 53.46 53.95 54.34 54.74 54.42 54.34 55.43 60.33 59.35 58.06 59.14 59.95 56.11 60.60 55.41 57.46 59.20 57.14 58.10 58.47 59.03 58.84 57.06 54.13 53.43 50.50 48.94 50.99 47.26 49.25 50.82 54.81 53.75 53.02 51.66 56.29 58.65 59.76 59.08 58.98 59.85 63.85 66.39
53.73 53.29 53.08 53.29 53.89 53.85 53.24 54.14 57.78 58.81 59.23 61.19 61.55 56.80 58.27 54.95 57.06 58.19 58.61 57.82 56.38 56.68 55.90 55.79 54.06 50.97 51.06 48.97 44.79 47.47 48.77 50.39 49.23 53.04 53.96 52.74 52.46 56.31 58.04 58.47 58.37 58.33 58.73 60.11 64.77
53.40 53.04 52.64 53.02 53.21 52.85 53.85 59.79 57.22 57.63 58.58 56.71 55.64 56.83 56.09 57.48 58.72 56.37 58.38 55.65 56.21 56.22 51.55 53.76 49.64 47.68 49.73 51.34 51.03 50.38 49.80 49.74 52.22 53.91 52.37 51.84 52.61 54.09 56.28 56.69 56.76 57.34 59.05 60.10 61.16
52.61 53.00 52.85 52.93 52.43 52.35 54.77 56.65 54.11 55.08 50.28 55.43 55.45 55.56 57.53 57.69 53.81 55.72 58.65 52.62 52.52 50.85 53.25 51.50 49.26 51.77 52.42 52.26 50.77 50.49 49.16 49.48 51.34 52.91 52.28 51.52 51.06 53.52 55.09 55.12 56.24 56.79 58.21 59.78 61.73
52.54 52.43 52.60 52.48 51.62 55.78 57.64 55.55 58.17 57.85 51.15 54.30 55.17 54.40 55.06 55.54 53.38 54.53 56.72 53.06 52.05 51.28 51.89 50.43 52.45 53.88 51.79 50.29 49.41 49.87 49.36 49.27 49.24 51.93 53.01 51.49 49.56 52.12 54.42 55.78 56.89 58.16 60.09 61.07 63.14
52.52 52.33 52.18 51.46 53.46 57.55 56.34 58.32 58.31 58.90 48.09 51.90 51.92 55.03 55.39 54.91 51.51 56.58 57.80 54.07 51.38 50.53 52.00 51.72 54.87 52.68 51.10 50.04 50.38 47.60 51.53 50.61 49.89 48.69 45.04 51.26 43.92 52.42 53.96 54.70 56.62 57.45 58.99 60.97 63.67
52.27 52.18 51.69 50.15 53.50 55.34 56.15 58.11 57.78 57.52 43.46 51.85 54.02 58.68 56.93 53.08 55.29 53.55 57.91 55.57 50.40 49.99 50.82 49.46 51.16 50.80 49.96 50.54 52.04 49.19 51.79 50.83 50.87 48.95 48.50 48.57 46.41 49.54 54.06 53.56 55.37 57.15 59.43 61.63 62.87
52.17 51.72 51.22 55.96 56.09 57.76 57.32 57.44 56.68 47.88 41.75 49.80 53.52 52.07 52.28 53.42 53.89 55.09 54.11 56.52 55.74 51.36 51.80 51.29 54.06 52.69 51.80 53.13 52.75 52.82 51.09 50.93 51.06 48.99 43.67 47.61 47.07 47.29 50.41 54.03 56.29 58.65 61.63 63.59 63.81
51.81 51.26 49.89 53.43 54.76 57.07 56.88 55.00 47.50 43.76 51.42 49.03 49.65 51.62 51.89 52.02 52.51 53.54 51.37 51.39 49.48 47.15 47.37 50.64 50.61 52.84 53.08 50.18 52.87 52.15 49.58 43.19 42.91 43.45 42.86 50.43 47.19 49.68 54.95 55.84 56.55 57.09 58.35 62.21 64.19
50.51 49.05 53.28 55.78 57.02 55.89 56.11 50.84 43.59 49.49 49.00 51.37 49.78 50.25 49.07 52.07 51.74 52.56 51.18 49.93 52.54 51.19 49.05 47.31 46.41 51.62 53.24 51.13 49.34 50.85 50.23 44.71 40.08 41.45 44.18 50.84 46.67 50.07 55.81 57.38 57.72 58.18 58.61 59.36 59.76
48.19 56.62 57.05 58.13 57.86 57.44 52.40 45.72 47.95 49.75 50.80 48.98 49.57 47.29 48.49 50.62 51.48 51.29 51.23 50.96 52.17 53.11 48.23 48.02 48.43 53.18 52.65 53.26 52.23 49.53 46.97 52.00 48.47 48.48 44.52 46.79 50.48 54.39 56.57 55.84 56.54 56.82 57.81 59.70 61.63
49.03 53.67 55.80 59.68 59.55 55.71 49.23 45.56 50.04 52.04 51.02 49.88 46.33 48.95 47.01 49.57 49.26 50.00 50.75 53.15 52.69 54.20 55.35 52.05 47.30 52.75 53.02 52.60 52.36 50.20 51.73 46.30 47.98 41.13 39.84 44.86 46.88 49.17 52.79 54.88 55.88 56.66 57.92 60.30 62.07
50.11 52.26 57.51 58.36 58.00 51.55 45.41 48.20 51.27 52.28 51.90 49.01 48.21 48.00 48.77 48.66 49.41 49.37 50.83 53.12 53.96 53.62 54.33 52.78 50.94 49.68 52.90 51.18 49.32 49.64 48.37 49.04 50.16 48.37 42.61 41.87 46.25 53.82 55.40 56.50 57.37 57.77 57.77 58.52 60.09
53.35 48.89 58.02 58.22 48.69 50.20 47.27 49.99 46.94 51.04 51.88 50.37 50.42 49.33 49.10 49.56 48.72 48.36 48.84 52.85 54.28 54.17 51.11 54.62 52.04 47.50 49.37 53.98 54.81 52.48 50.54 51.81 45.76 45.92 48.46 47.46 46.29 56.54 58.04 56.36 57.64 56.60 57.62 58.33 59.78
51.06 52.97 57.82 56.79 46.56 48.19 51.68 50.15 50.40 49.91 49.48 49.80 48.83 50.51 51.07 48.81 46.72 49.23 50.05 53.70 53.61 53.29 51.49 53.32 51.06 45.37 46.69 50.39 53.29 51.53 52.58 52.58 54.14 54.16 48.27 44.67 46.47 56.05 57.44 57.66 57.34 56.85 58.21 59.41 60.81
51.65 48.14 52.98 52.38 52.69 50.12 50.72 50.40 49.36 51.81 49.47 50.60 50.08 51.39 49.89 48.98 50.84 48.59 49.71 52.04 52.94 52.35 54.85 54.20 51.63 49.06 44.96 48.22 51.12 50.03 52.11 53.15 52.80 48.90 48.53 48.32 49.98 53.53 56.63 54.22 56.93 59.62 60.51 59.67 60.87
51.37 50.50 52.29 48.93 49.53 50.38 50.99 50.89 49.04 49.07 51.12 51.27 48.79 49.25 48.43 46.70 48.24 48.47 50.40 51.09 52.65 54.53 51.94 52.37 46.63 48.90 49.19 50.12 50.22 49.68 49.58 50.56 50.08 50.92 48.00 49.94 49.85 53.47 56.55 57.47 58.17 59.45 60.61 60.85 63.08
49.67 49.20 53.20 50.61 51.59 51.08 48.64 49.20 48.55 50.08 50.71 49.58 48.48 49.94 51.04 48.02 48.15 47.36 50.22 50.77 50.51 52.74 51.61 53.64 46.72 48.47 46.38 48.87 48.51 46.97 48.89 49.53 49.76 49.99 49.63 49.95 50.56 55.22 57.13 58.02 56.93 57.84 62.15 62.78 64.41
53.65 52.68 50.38 49.37 49.22 48.30 48.99 49.81 49.67 51.12 51.60 51.93 50.78 49.68 48.80 50.35 52.68 53.40 53.67 53.59 52.66 51.07 50.72 50.60 48.18 46.36 42.87 47.74 47.02 43.66 47.08 48.47 49.06 50.31 49.86 47.82 52.57 55.84 55.75 57.24 57.71 61.70 62.13 62.66 64.05
MSLP
1021.33 1020.93 1020.58 1020.23 1019.88 1019.43 1019.02 1018.68 1018.31 1017.92 1017.55 1017.16 1016.69 1016.33 1016.01 1015.58 1014.56 1013.51 1011.91 1010.00 1009.48 1009.96 1010.05 1009.14 1007.98 1007.86 1007.58 1006.96 1006.32 1005.49 1004.66 1003.48 1002.11 1001.19 1000.87 1000.67 1000.38 1000.59 1001.34 1001.65 1001.89 1002.65 1003.44 1005.33 1006.07
1021.38 1021.02 1020.68 1020.26 1019.81 1019.35 1018.96 1018.53 1018.15 1017.77 1017.33 1016.91 1016.50 1016.20 1015.92 1015.63 1014.14 1011.74 1009.71 1009.84 1009.78 1009.85 1009.69 1008.75 1007.36 1006.89 1006.62 1006.22 1005.77 1005.18 1004.31 1003.24 1002.11 1001.16 1001.26 1000.23 1000.38 1000.28 1000.93 1001.66 1003.53 1005.28 1006.18 1004.92 1005.25
1021.49 1021.03 1020.63 1020.22 1019.75 1019.29 1018.86 1018.44 1018.01 1017.57 1017.14 1016.75 1016.37 1016.05 1015.80 1015.55 1012.90 1009.46 1009.70 1009.77 1009.79 1009.80 1009.51 1008.53 1007.22 1006.26 1005.83 1005.38 1004.88 1004.47 1003.71 1003.02 1002.00 1001.20 1000.76 1000.52 1000.43 1000.52 1000.94 1002.92 1003.78 1006.58 1006.72 1005.99 1005.25
1021.59 1021.09 1020.67 1020.25 1019.70 1019.16 1018.72 1018.25 1017.77 1017.34 1016.91 1016.53 1016.22 1015.96 1015.72 1014.88 1010.80 1008.91 1009.42 1009.45 1009.67 1009.47 1009.18 1008.37 1007.19 1006.42 1005.63 1004.73 1004.06 1003.72 1003.28 1002.85 1002.14 1001.36 1001.00 1000.75 1000.70 1000.61 1000.96 1002.05 1003.25 1003.44 1005.30 1005.47 1004.97
1021.65 1021.16 1020.71 1020.22 1019.66 1019.06 1018.49 1018.00 1017.53 1017.05 1016.65 1016.28 1016.07 1015.94 1015.36 1012.60 1009.02 1008.84 1009.14 1009.26 1009.19 1009.21 1008.55 1007.73 1006.78 1006.04 1005.29 1004.42 1003.64 1003.15 1002.96 1002.49 1002.17 1001.71 1001.49 1001.33 1000.97 1000.98 1001.10 1001.13 1001.83 1002.17 1003.42 1004.12 1004.54
1021.76 1021.23 1020.64 1020.11 1019.58 1018.87 1018.25 1017.70 1017.11 1016.58 1016.14 1015.87 1015.76 1015.92 1014.57 1010.62 1007.27 1007.69 1007.99 1008.42 1008.14 1008.30 1007.69 1007.03 1006.06 1005.44 1004.94 1004.33 1003.74 1003.09 1002.58 1002.38 1002.21 1001.74 1001.54 1001.39 1001.11 1000.92 1000.75 1000.66 1000.93 1001.66 1002.38 1003.23 1003.96
1021.73 1021.15 1020.58 1020.03 1019.34 1018.63 1018.00 1017.42 1016.77 1016.17 1015.71 1015.43 1015.54 1015.02 1012.46 1009.07 1007.44 1007.56 1007.74 1007.58 1007.49 1007.35 1006.70 1006.21 1005.83 1005.68 1005.19 1004.65 1003.85 1003.39 1002.99 1002.47 1002.07 1001.71 1001.34 1001.18 1000.83 1000.52 1000.55 1000.30 1000.34 1001.10 1001.77 1002.31 1003.14
1021.71 1021.13 1020.47 1019.71 1018.96 1018.21 1017.53 1016.92 1016.26 1015.74 1015.35 1015.32 1015.43 1014.31 1010.66 1007.44 1007.59 1007.46 1007.33 1007.17 1007.15 1007.03 1006.74 1006.32 1006.16 1006.23 1005.74 1004.94 1003.98 1003.38 1002.93 1002.08 1001.07 1000.68 1001.06 1001.31 1000.46 1000.41 1000.23 1000.04 999.95 1000.31 1000.85 1001.49 1002.17
1021.68 1020.97 1020.26 1019.51 1018.64 1017.84 1017.04 1016.40 1015.77 1015.35 1015.27 1015.43 1014.99 1013.06 1009.20 1008.18 1007.69 1007.37 1007.21 1006.95 1006.97 1007.07 1007.04 1006.96 1006.96 1006.30 1005.78 1004.97 1004.14 1002.82 1002.05 1001.01 1000.18 999.42 1000.12 1000.45 1000.26 1000.19 999.76 999.42 999.72 999.81 1000.01 1000.49 1001.25
1021.46 1020.71 1019.98 1019.30 1018.42 1017.60 1016.57 1015.52 1015.15 1015.18 1014.84 1014.23 1012.97 1011.67 1008.73 1007.02 1006.81 1006.76 1006.95 1006.98 1006.72 1006.95 1006.93 1007.00 1006.63 1006.01 1005.35 1004.63 1003.21 1001.63 1001.32 1000.43 999.98 999.53 999.78 1000.14 1000.07 999.87 999.71 999.35 999.12 999.36 999.74 999.93 1000.46
1021.33 1020.60 1019.84 1019.08 1018.16 1017.36 1016.36 1014.59 1014.76 1014.42 1013.34 1010.93 1009.67 1008.68 1007.27 1007.20 1007.30 1007.02 1006.72 1006.87 1006.81 1006.73 1006.52 1006.09 1005.85 1004.99 1004.21 1003.72 1003.21 1002.41 1001.88 1001.35 1000.44 1000.07 1000.05 1000.18 1000.26 999.95 999.52 999.15 998.88 998.84 998.98 999.29 999.71
1021.27 1020.57 1019.77 1018.88 1017.80 1016.63 1016.37 1013.74 1013.64 1013.25 1011.47 1009.27 1008.07 1007.49 1007.04 1007.15 1006.93 1006.61 1006.58 1007.01 1006.81 1006.39 1006.18 1005.65 1004.67 1004.32 1003.72 1003.24 1002.93 1002.67 1002.46 1002.13 1001.50 1001.02 1000.91 1000.73 1000.49 1000.07 999.56 999.22 998.90 998.60 998.65 998.57 998.87
1021.36 1020.68 1019.71 1018.66 1017.35 1016.02 1014.12 1013.76 1013.18 1012.48 1011.35 1007.50 1006.69 1006.40 1006.37 1006.81 1006.59 1006.05 1006.41 1006.49 1006.18 1006.08 1005.44 1004.64 1003.23 1003.37 1003.45 1003.20 1003.23 1003.24 1003.02 1002.48 1001.96 1001.41 1001.22 1001.21 1000.55 999.66 998.92 998.52 998.26 998.23 998.04 998.23 998.75
1021.49 1020.82 1019.94 1018.85 1017.25 1014.90 1013.41 1013.41 1012.94 1012.91 1010.81 1006.78 1006.11 1005.72 1006.09 1006.14 1006.08 1006.02 1005.75 1006.19 1005.97 1005.40 1004.90 1004.19 1003.35 1003.36 1003.43 1003.51 1003.72 1003.17 1002.91 1002.64 1002.39 1002.34 1001.98 1001.18 999.79 998.34 997.60 997.63 997.44 997.68 997.72 997.84 998.69
1021.52 1020.93 1020.19 1020.20 1018.00 1014.61 1013.75 1013.42 1013.24 1013.05 1008.95 1006.28 1005.29 1005.53 1005.18 1005.54 1005.06 1005.34 1005.31 1005.81 1005.49 1005.06 1004.82 1003.88 1003.13 1003.10 1003.07 1003.24 1003.40 1003.35 1003.26 1002.95 1002.96 1002.93 1002.53 1001.54 1000.36 998.60 997.54 996.87 996.92 997.08 997.00 997.63 998.47
1021.45 1020.93 1020.48 1017.16 1017.29 1014.93 1013.90 1013.67 1013.23 1011.74 1007.18 1005.58 1004.89 1004.99 1005.07 1005.16 1004.89 1004.86 1005.42 1005.62 1005.25 1005.10 1004.48 1003.72 1003.13 1002.90 1003.08 1002.98 1003.15 1003.40 1003.56 1003.49 1003.60 1003.35 1002.51 1001.40 1000.42 998.72 997.39 996.76 996.34 996.89 997.25 998.00 998.88
1021.04 1020.56 1020.56 1018.84 1015.34 1014.65 1014.31 1013.44 1011.90 1008.82 1005.87 1005.31 1004.66 1004.40 1003.92 1003.97 1004.28 1004.71 1005.23 1005.29 1005.13 1004.76 1004.07 1003.30 1002.83 1002.64 1002.84 1003.20 1003.08 1003.49 1003.71 1003.63 1003.27 1002.53 1001.32 1000.08 999.51 998.21 997.24 996.92 997.06 997.25 997.70 998.10 998.77
1020.51 1019.80 1018.02 1017.07 1015.47 1015.22 1014.37 1012.82 1010.27 1006.47 1005.48 1005.92 1005.62 1004.90 1004.21 1003.78 1004.02 1004.11 1004.62 1004.74 1004.86 1004.45 1003.53 1002.65 1001.64 1001.67 1002.02 1002.64 1003.02 1002.92 1003.40 1003.53 1003.08 1002.32 1001.19 1000.11 998.19 997.53 997.09 996.96 997.42 997.58 997.91 998.45 998.71
1020.14 1016.97 1016.04 1015.07 1014.98 1015.13 1014.08 1011.47 1007.96 1006.94 1006.61 1006.56 1005.89 1005.11 1004.13 1004.20 1004.32 1003.78 1003.99 1003.82 1003.73 1003.71 1004.12 1003.26 1002.14 1001.72 1002.23 1002.30 1002.82 1003.02 1003.10 1003.21 1003.22 1003.37 1002.54 1001.04 999.22 998.42 997.81 997.73 997.92 997.80 997.97 998.35 998.72
1020.15 1017.00 1014.38 1014.46 1014.91 1014.67 1013.38 1010.55 1008.51 1007.79 1007.90 1007.43 1006.60 1005.36 1004.34 1003.75 1004.33 1004.13 1003.68 1003.88 1003.79 1004.34 1004.37 1004.16 1003.63 1002.91 1002.39 1003.00 1003.04 1003.05 1003.08 1003.17 1003.02 1003.49 1002.94 1001.41 1000.02 999.33 998.71 998.78 998.31 998.08 998.12 998.39 998.61
1019.93 1015.91 1014.55 1014.21 1014.79 1013.82 1011.99 1010.06 1008.48 1008.49 1008.99 1008.56 1007.70 1006.76 1005.94 1005.20 1005.01 1004.51 1004.05 1005.26 1005.24 1005.01 1005.25 1005.43 1005.18 1004.31 1003.29 1002.38 1002.38 1002.40 1002.67 1003.11 1003.30 1003.58 1003.23 1002.29 1000.91 1000.01 1000.15 1000.43 999.81 999.10 998.87 998.74 999.00
1018.02 1014.85 1014.22 1014.34 1014.09 1012.60 1011.25 1010.19 1010.40 1009.11 1009.54 1009.67 1009.11 1008.50 1007.63 1006.86 1006.19 1005.82 1005.14 1005.66 1006.41 1006.50 1006.38 1006.11 1005.84 1004.95 1004.12 1002.99 1002.30 1002.14 1002.29 1002.46 1003.05 1003.44 1003.28 1002.75 1001.34 1000.35 1000.23 999.57 999.52 999.48 999.30 999.21 999.22
1016.83 1014.04 1014.39 1014.38 1012.91 1011.58 1010.51 1009.89 1010.12 1009.95 1009.79 1009.79 1009.57 1009.14 1008.79 1008.28 1007.98 1007.19 1006.63 1007.11 1007.14 1007.51 1008.60 1008.77 1006.98 1006.26 1005.01 1003.96 1002.84 1002.39 1002.22 1002.38 1002.87 1003.39 1003.33 1002.85 1001.65 1000.66 1000.26 1000.17 999.85 999.67 999.59 999.62 999.62
1017.11 1013.93 1013.83 1014.12 1012.93 1012.19 1010.91 1009.83 1009.85 1010.12 1010.40 1010.21 1010.14 1009.95 1009.65 1009.29 1008.88 1008.22 1007.39 1007.33 1007.92 1008.51 1009.61 1009.97 1008.86 1007.71 1006.32 1004.40 1004.27 1003.60 1003.02 1002.68 1002.93 1003.10 1002.62 1002.15 1001.53 1001.02 1000.87 1001.27 1001.57 999.98 1000.17 1000.22 1000.12
1017.03 1013.96 1013.46 1012.54 1012.35 1011.99 1011.63 1010.93 1010.13 1009.94 1010.50 1010.70 1010.44 1010.53 1010.28 1009.85 1009.28 1008.71 1008.34 1008.10 1008.26 1009.09 1009.71 1009.99 1009.60 1008.98 1007.82 1006.57 1005.31 1004.55 1003.80 1003.30 1002.92 1002.70 1002.35 1001.91 1001.37 1001.06 1001.00 1001.06 1000.84 1000.61 1000.46 1000.23 1000.19
1016.87 1014.94 1013.58 1012.95 1012.65 1012.19 1011.78 1011.43 1010.90 1010.46 1010.21 1010.20 1010.75 1010.77 1010.34 1010.43 1010.34 1009.82 1009.41 1009.14 1009.28 1009.21 1009.65 1009.80 1009.83 1009.75 1008.69 1007.85 1006.38 1004.80 1004.23 1003.51 1003.19 1002.84 1002.28 1001.93 1001.41 1001.55 1001.35 1001.27 1001.15 1000.88 1001.00 1001.03 1001.11
1016.57 1016.33 1015.65 1013.52 1012.80 1012.61 1011.82 1011.36 1011.23 1011.14 1010.93 1010.45 1010.67 1011.15 1011.31 1011.13 1011.31 1011.26 1011.22 1011.24 1011.36 1011.22 1010.74 1010.73 1010.75 1010.64 1009.04 1008.44 1006.81 1004.85 1004.38 1003.44 1002.94 1002.70 1002.24 1001.51 1001.36 1001.41 1001.20 1001.19 1001.36 1001.72 1002.36 1002.43 1002.35
Wind_Speed
14 15 16 16 16 16 17 17 17 17 17 17 17 16 16 17 20 8 12 7 2 2 5 12 13 14 17 18 19 19 13 14 21 13 8 1 9 9 3 8 7 5 15 13 18
15 15 16 17 17 16 17 18 19 18 18 17 17 16 16 15 13 18 6 6 7 5 7 13 13 12 12 17 15 17 13 20 21 10 9 8 2 4 1 5 19 30 30 16 13
15 16 17 18 18 17 17 18 19 18 18 17 17 16 14 16 12 1 7 6 4 3 11 17 16 14 12 15 17 17 17 19 23 19 10 13 10 11 3 12 12 22 32 10 13
15 17 17 18 19 18 19 19 19 19 18 17 16 15 12 8 4 7 8 4 2 7 11 13 13 15 13 15 17 17 17 19 21 22 17 12 10 13 12 8 18 27 30 16 13
16 17 18 18 19 19 19 19 20 19 18 16 13 11 9 9 12 9 7 5 7 8 12 14 13 13 14 15 14 14 15 17 17 19 18 15 15 10 15 2 16 11 18 13 12
16 18 19 20 19 19 19 19 19 19 16 13 10 5 7 13 3 8 11 6 9 10 13 15 13 12 14 16 15 14 13 13 16 20 14 17 18 16 16 11 7 7 8 14 13
16 17 19 20 20 20 19 19 19 18 14 10 7 6 11 16 2 3 7 11 11 10 12 10 12 8 12 12 18 14 14 17 14 16 18 18 16 16 14 18 9 12 10 11 14
16 18 20 21 21 22 21 20 19 15 11 5 5 8 9 6 5 7 9 6 7 9 10 10 5 11 15 16 18 12 13 15 17 20 16 18 18 14 18 20 12 12 17 14 17
17 18 20 22 23 24 23 20 17 11 7 4 7 9 11 2 8 12 11 10 8 8 7 6 7 12 14 14 13 15 14 16 16 12 13 20 15 16 20 16 11 10 12 17 16
18 19 21 23 24 24 25 16 0 6 7 10 12 9 8 4 4 4 12 11 5 9 10 9 8 12 13 13 13 15 12 10 8 8 12 10 15 12 14 18 12 12 11 12 17
19 20 23 24 25 23 14 5 5 6 10 14 7 13 2 1 2 7 7 10 10 9 12 14 11 12 15 16 16 19 13 15 15 10 8 8 12 15 17 16 16 13 12 12 13
20 22 24 25 26 27 9 7 7 7 12 16 17 15 14 3 5 9 10 10 12 13 13 12 13 15 17 14 15 12 11 14 15 13 11 12 16 18 15 18 19 16 15 14 11
18 21 24 27 29 12 8 6 8 10 8 10 7 11 10 14 14 8 10 14 12 14 15 15 13 1 9 11 10 12 13 15 16 16 13 11 17 19 19 18 16 17 10 7 6
17 20 23 29 8 11 5 5 9 7 7 11 9 7 6 6 10 16 14 12 13 17 14 14 13 13 8 12 10 15 14 16 15 9 13 18 15 14 14 18 15 8 14 10 8
17 19 21 11 11 7 8 8 8 5 7 10 10 6 6 9 4 14 14 13 16 15 12 15 14 11 13 11 12 13 16 15 13 13 16 17 13 14 13 10 11 9 10 9 9
17 18 19 4 9 12 9 11 7 7 5 6 6 10 11 11 11 9 13 13 10 14 16 17 17 8 11 11 13 12 14 12 13 13 14 18 16 14 15 7 10 5 8 10 4
19 19 14 10 4 13 10 8 7 8 3 7 5 6 10 12 10 9 13 14 11 10 14 18 18 16 11 11 12 8 10 9 12 12 13 17 16 13 12 5 1 2 4 8 11
21 24 9 9 9 10 8 7 7 5 6 4 3 6 10 8 9 11 12 13 16 17 14 12 11 19 15 13 11 11 9 8 15 14 16 20 4 4 1 6 4 4 4 5 9
27 8 6 9 6 4 7 9 4 10 8 5 7 10 12 4 8 8 12 13 14 17 13 13 12 4 2 7 11 12 13 15 13 12 14 14 20 2 9 6 3 5 10 2 8
9 8 7 8 2 5 6 11 11 7 5 6 12 3 10 11 9 9 9 2 3 8 11 7 13 14 4 3 11 14 11 12 8 11 15 13 15 10 20 14 0 1 5 5 4
6 6 5 4 4 6 9 11 11 10 8 5 10 12 9 12 3 13 2 6 2 5 4 10 10 15 17 11 10 8 12 10 11 8 11 10 4 12 9 11 7 9 9 12 4
6 5 6 4 6 7 11 15 5 6 4 5 7 11 14 14 9 13 16 11 5 6 7 7 6 10 15 18 16 13 13 10 8 9 10 11 13 14 7 7 7 11 13 13 14
5 3 4 5 7 10 13 14 2 8 5 3 5 8 11 10 9 10 16 9 8 7 8 11 4 9 15 14 16 16 15 11 9 7 12 13 11 14 12 14 11 9 12 15 13
6 4 6 6 10 12 11 9 11 8 8 11 8 9 9 11 11 8 13 6 5 2 5 4 8 11 12 19 17 12 12 13 11 10 12 13 17 15 8 10 25 11 12 14 14
5 4 5 5 10 11 10 12 8 11 9 7 6 12 14 12 13 14 15 14 7 12 5 5 10 15 18 22 24 22 21 18 18 16 14 14 17 16 13 10 14 14 13 14 13
6 4 2 9 5 7 7 10 13 12 11 8 10 13 11 10 13 14 15 12 8 5 10 7 11 13 19 21 24 26 23 21 20 21 21 20 19 16 16 14 15 15 12 14 15
2 3 4 6 9 8 11 11 11 9 11 9 6 7 10 8 9 12 9 9 9 10 10 9 7 11 17 18 22 24 18 21 22 22 23 20 16 16 16 14 12 12 14 15 16
Wind_Direction
358 355 350 347 343 341 338 334 330 326 321 316 315 316 318 322 306 245 261 245 177 79 315 272 246 233 238 252 260 268 273 267 276 317 332 271 245 167 66 280 130 68 73 156 192
355 353 348 344 341 338 333 329 326 322 318 314 312 313 317 325 294 269 262 107 120 117 253 248 246 226 238 237 246 246 249 261 269 285 269 287 198 349 252 340 43 8 326 118 142
351 350 347 342 337 334 329 325 322 318 313 308 307 308 315 311 275 38 138 128 116 210 251 277 279 285 246 245 237 236 248 262 275 295 307 293 325 296 271 69 98 120 273 253 146
347 346 344 339 334 330 325 322 319 313 308 303 301 302 313 271 313 107 166 134 138 245 238 252 258 264 255 263 246 250 243 263 272 291 305 300 284 300 313 113 181 170 205 221 161
344 342 340 335 330 324 320 318 314 309 303 297 291 296 287 237 254 145 176 153 203 200 225 234 245 249 260 264 258 250 249 265 265 269 279 296 283 286 285 204 174 126 165 156 178
340 338 338 333 326 323 320 317 313 308 303 292 277 286 250 262 22 140 209 174 234 209 224 240 246 249 282 284 289 289 276 264 260 274 266 258 261 248 251 249 142 155 168 165 176
338 336 334 330 325 321 318 314 311 309 303 287 243 242 263 252 17 314 226 216 222 218 248 245 274 309 267 255 260 262 273 276 262 264 264 264 264 266 261 272 198 176 188 188 169
337 334 332 330 325 321 319 316 312 306 304 297 208 237 265 7 334 236 229 229 256 229 275 305 294 280 280 281 291 266 268 264 261 226 229 254 260 272 248 257 212 215 182 193 172
336 334 333 329 325 322 320 311 301 296 287 212 222 234 268 134 228 237 231 236 196 245 247 309 273 266 264 255 261 247 250 259 245 240 207 221 247 263 265 222 236 218 230 184 187
337 336 333 329 324 323 321 289 162 283 221 216 261 268 255 305 114 267 208 243 213 225 237 232 248 244 236 259 253 251 248 260 258 162 189 239 262 241 272 272 230 224 243 267 193
338 337 332 327 323 322 332 276 227 188 231 265 302 254 169 312 186 227 222 210 229 230 234 219 240 243 242 237 254 291 311 309 315 340 323 299 293 296 294 288 278 267 242 223 260
337 335 330 326 321 317 280 306 38 324 297 276 257 248 271 166 269 235 165 208 214 234 219 256 231 251 268 255 277 282 291 278 286 282 279 292 293 288 268 261 256 261 266 254 232
334 332 329 326 319 295 305 4 313 316 267 289 219 231 225 216 235 247 190 213 219 229 247 243 260 230 280 290 287 271 270 283 293 309 308 278 270 262 256 256 259 259 256 288 294
328 328 327 329 304 336 289 353 324 8 274 174 191 190 176 223 225 233 206 225 237 252 252 261 250 271 237 276 264 273 255 254 267 293 279 281 291 274 260 220 227 230 233 208 222
323 324 323 324 309 296 2 317 341 267 270 174 128 100 141 214 91 190 224 210 246 239 240 261 255 242 276 248 266 266 286 303 312 295 282 279 273 279 290 202 200 232 236 128 162
316 318 331 282 218 260 319 320 272 234 241 132 149 195 196 208 249 127 202 222 243 259 273 267 282 288 264 283 256 258 280 275 282 268 265 262 255 272 279 308 214 163 123 114 143
312 305 304 305 297 337 318 269 233 251 116 134 216 200 230 162 217 173 197 207 227 219 239 248 239 242 235 263 267 255 267 261 257 234 244 244 236 243 265 47 64 8 51 146 171
310 304 253 237 296 302 289 240 257 320 73 45 297 271 261 197 213 187 193 230 219 262 281 290 287 211 208 219 267 244 246 257 303 305 324 320 255 249 50 336 5 3 3 308 298
305 257 244 219 229 287 263 229 273 14 16 0 292 262 237 198 264 192 227 221 235 205 245 282 287 82 12 301 211 250 263 263 269 290 290 292 297 4 312 206 271 279 261 193 242
315 281 263 127 176 232 243 261 312 32 351 323 295 308 274 193 198 248 251 339 6 358 5 304 301 307 257 178 253 266 278 264 234 258 271 271 287 29 29 3 172 305 34 340 313
267 231 100 171 193 223 236 240 291 88 18 314 297 297 292 319 298 285 321 98 14 289 328 303 291 281 293 239 256 232 224 236 273 301 310 310 348 36 43 185 248 332 344 331 336
270 229 126 181 216 226 241 247 353 328 92 293 304 294 309 314 308 288 296 61 48 358 296 313 297 276 270 291 290 242 273 273 228 247 240 257 275 302 318 314 360 340 324 311 341
254 188 137 221 237 231 229 246 272 287 274 267 275 292 293 284 287 268 281 84 50 3 33 346 256 259 263 246 251 266 270 264 276 282 285 289 295 308 323 317 309 327 352 336 328
276 228 142 199 271 301 298 245 228 206 274 280 271 304 290 275 268 273 285 148 108 50 57 358 290 285 284 296 324 305 301 299 254 267 262 247 261 274 15 356 306 354 341 321 308
248 255 24 178 213 240 251 282 281 237 187 293 257 250 267 272 273 269 265 268 209 153 209 229 274 281 278 285 291 287 282 280 287 290 284 286 297 306 317 315 322 319 295 285 343
297 295 308 269 333 300 207 249 259 266 268 210 234 277 297 255 269 289 328 340 343 162 217 226 269 279 281 283 280 279 282 285 280 279 275 277 277 286 291 285 280 287 11 10 358
259 322 278 311 217 247 250 231 250 276 280 285 308 298 262 301 348 1 1 335 323 316 316 309 284 291 275 288 284 269 272 269 269 267 270 273 284 289 287 297 293 45 34 11 1